{"data":{"norad_id":49075,"intl_designator":"2021-075A","name":"ONEWEB-0285","alt_names":[],"object_type":"PAYLOAD","status":"ACTIVE","operator":null,"country":"UK","launch_date":"2021-08-21","launch_site_code":"TYMSC","launch_vehicle":null,"mission":null,"orbit_class":"UNKNOWN","rcs_meters":null,"size_class":null,"mass_kg":null,"dimensions":null,"purposes":["comms"],"wikipedia_slug":null,"has_3d_model":false,"image_url":null,"decayed_at":null,"tle_current":{"epoch":"2026-05-25T02:42:33.053184Z","epoch_age_seconds":75498,"freshness":"FRESH","line1":"1 49075U 21075A   26145.11288256  .00000436  00000+0  11771-2 0  9992","line2":"2 49075  87.8959 355.2506 0001723  85.6280 274.5046 13.12441504232180","mean_motion":13.12441504,"eccentricity":0.0001723,"inclination_deg":87.8959,"raan_deg":355.2506,"arg_perigee_deg":85.628,"mean_anomaly_deg":274.5046,"bstar":0.0011771,"rev_number":23218,"period_min":109.71917572031,"perigee_km":1212.4209816314,"apogee_km":1215.0371386757,"semimajor_km":7591.8660601536,"source":"CELESTRAK","updated_at":"2026-05-25T13:38:22.480263Z"}}}